Retour au catalogue

FENGYUN 2C DEB

LostMEO
NORAD 40000·DEBRIS·🇨🇳 China

Lancé Oct 19, 2004 depuis Xichang Satellite Launch Center

Loading…

Prochains Passages (prochaines 24 heures)

TLE

PériméSource: Space-Track

Époque: Mar 21, 2026, 10:29 UTC

1 40000U 04042D   26080.43694546  .00000072  00000-0  00000-0 0  9990
2 40000  12.6402  20.3576 0198751  71.1279 290.9952  1.00297433 11706

Suivez FENGYUN 2C DEB en temps réel avec AllMySat

Download on the App Store